Regional Weather Roundup
Issued by NWS Albany, NY

Home | Current Version | Previous Version | Text Only | Print | Product List | Glossary On
Versions: 1 2 3 4 5 6 7 8 9 10 11 12 13 14 15 16 17 18 19 20 21 22 23 24 25 26 27 28 29 30 31 32 33 34 35 36 37 38 39 40 41 42 43 44 45 46 47 48 49 50
000
ASUS41 KALY 302010
RWRALY

NEW YORK STATE HOURLY WEATHER ROUNDUP
NATIONAL WEATHER SERVICE ALBANY NY
400 PM EDT TUE JUN 30 2015

NOTE: "FAIR" INDICATES FEW OR NO CLOUDS BELOW 12,000 FEET WITH NO
SIGNIFICANT WEATHER AND/OR NO OBSTRUCTIONS TO VISIBILITY.

NYZ032-033-038>043-046>054-057>066-NYZ062>081-302100-
EAST


CITY           SKY/WX    TMP DP  RH WIND       PRES   REMARKS
ALBANY         CLOUDY    68  63  84 NE3       29.93F
GLENS FALLS    HVY RAIN  63  59  87 N7        29.94F FOG
POUGHKEEPSIE   CLOUDY    76  60  57 VRB3      29.89F
NEWBURGH       PTSUNNY   77  61  57 S8G18     29.91F
MONTGOMERY     LGT RAIN  69  66  90 N9        29.89F
WHITE PLAINS   SUNNY     79  58  48 S12       29.92F
ISLIP          PTSUNNY   78  60  53 S16G23    29.93F
NEW YORK CITY  CLOUDY    81  59  47 S22G29    29.90F
CENTRAL PARK   MOSUNNY   80  58  46 S8G25     29.93S
$$

NYZ005>009-017-018-044>046-055-056-302100-
CENTRAL


CITY           SKY/WX    TMP DP  RH WIND       PRES   REMARKS
FULTON         PTSUNNY   69  62  78 VRB6      29.81F
SYRACUSE       CLOUDY    72  66  83 NE10      29.81F
ROME           LGT RAIN  65  62  90 SE12      29.87F
ELMIRA         PTSUNNY   76  64  66 W8        29.80F
BINGHAMTON     PTSUNNY   71  64  78 S10       29.86F
MONTICELLO     CLOUDY    64  63  94 E9        29.93F
$$

NYZ026>034-041>043-302100-
NORTH


CITY           SKY/WX    TMP DP  RH WIND       PRES   REMARKS
WATERTOWN      CLOUDY    63  60  90 NE8       29.83F
FORT DRUM      NOT AVBL
MASSENA        LGT RAIN  69  52  54 S8        29.90R
SARANAC LAKE   LGT RAIN  61  58  90 SE5       29.94F
PLATTSBURGH    LGT RAIN  65  59  81 S5        29.93S
$$

NYZ001>004-010>016-019>021-302100-
WEST


CITY           SKY/WX    TMP DP  RH WIND       PRES   REMARKS
NIAGARA FALLS  PTSUNNY   73  61  65 SW14      29.77S
BUFFALO        PTSUNNY   72  61  68 SW9       29.78F
DUNKIRK        CLOUDY    68  62  81 W8        29.79F
JAMESTOWN      PTSUNNY   70  57  64 W7        29.81F
WELLSVILLE     LGT RAIN  68  63  84 VRB3      29.85F
ROCHESTER      PTSUNNY   75  64  68 SW7       29.77F
PENN YAN       PTSUNNY   76  62  62 S12       29.80F
$$

             KEY
       WCI = WIND CHILL INDEX
       VSB = VISIBILITY
       HX  = HEAT INDEX
$$


USA.gov is the U.S. government's official web portal to all federal, state and local government web resources and services.